Terminal Aerodrome Forecast
Issued by NWS

Home | Current Version | Previous Version | Text Only | Print | Product List | Glossary On
Versions: 1 2 3 4 5 6 7 8 9 10 11 12 13 14 15 16
000
FTUS43 KFGF 310500
TAFTVF
TAF
KTVF 310520Z 3106/0106 33014KT P6SM FEW015 OVC040
     FM310700 34015KT P6SM OVC015
     FM311500 36014G23KT P6SM BKN050
     FM010200 01013KT P6SM BKN100
      AMD LTD TO CLD VIS AND WIND=

USA.gov is the U.S. government's official web portal to all federal, state and local government web resources and services.